"startDT [UTC]","vpos","CH4 [ppm]","stdev(CH4) [ppm]","CO2 [ppm]","stdev(CO2) [ppm]","H2O_reported [%]","stdev(H2O_reported)","CavityPressure [torr]","CavityTemp [C]","OutletValve","CH4_dry [ppm]","CO2_dry [ppm]","DasTemp [C]","EtalonTemp [C]","WarmBoxTemp [C]","MPVPosition","T_ECpre [C]","T_EC1 [C]","T_EC2 [C]","p_inlet [hPa]","p_in [hPa]","p_out [hPa]","T_inlet [C]","RH_inlet [%]","dwpt_inlet [C]","T_vent [C]","RH_vent [%]","dwpt_vent [C]","flow_vent [l min-1]","flow_inlet [l min-1]","dwpt_sample [C]","T_room [C]"
2015-02-27 00:00:00,3.0,1.88364,0.02555,399.590,2.802,0.0158,0.0210,139.924,45.000,31271.08419,1.88699,399.847,33.188,45.068,45.000,0.00,0.09,-272.70,-272.75,-0,507,-1,19.5,2.4,-29.2,19.7,2.5,-28.9,5.73,2.02,-21.9,26.2
2015-02-27 00:01:00,3.0,1.87634,0.00037,397.189,0.054,0.0049,0.0017,139.995,45.000,31130.48100,1.87639,397.216,33.192,45.068,45.000,0.00,0.09,-272.70,-272.75,-1,508,-1,19.5,2.4,-29.3,19.7,2.5,-28.9,5.73,1.99,-21.9,26.2
2015-02-27 00:02:00,3.0,1.87613,0.00053,397.235,0.084,0.0050,0.0022,139.995,45.000,31080.41450,1.87624,397.255,33.212,45.068,45.000,0.00,0.09,-272.71,-272.77,-1,508,-1,19.5,2.4,-29.4,19.7,2.4,-28.9,5.73,1.99,-21.9,26.2
2015-02-27 00:03:00,3.0,1.87583,0.00028,397.516,0.064,0.0042,0.0018,139.997,45.000,31041.81656,1.87590,397.532,33.199,45.068,45.000,0.00,0.09,-272.69,-272.76,-0,508,-1,19.5,2.4,-29.3,19.7,2.5,-28.9,5.73,1.99,-21.9,26.2
2015-02-27 00:04:00,3.0,1.87563,0.00036,397.601,0.030,0.0043,0.0019,139.996,45.000,31008.18793,1.87570,397.621,33.190,45.068,45.000,0.00,0.09,-272.70,-272.75,-0,508,-1,19.5,2.4,-29.3,19.7,2.4,-28.9,5.73,1.99,-21.9,26.2
2015-02-27 00:05:00,3.0,1.87552,0.00041,397.614,0.028,0.0033,0.0013,139.995,45.000,30980.48514,1.87561,397.629,33.189,45.068,45.000,0.00,0.09,-272.70,-272.76,-0,509,-1,19.5,2.4,-29.3,19.7,2.4,-28.9,5.73,1.99,-21.9,26.3
2015-02-27 00:06:00,3.0,1.87577,0.00036,397.650,0.028,0.0022,0.0016,139.997,45.000,30957.10324,1.87579,397.661,33.185,45.068,45.000,0.00,0.09,-272.70,-272.76,-0,509,-1,19.5,2.4,-29.3,19.7,2.5,-28.8,5.73,1.99,-21.9,26.3
2015-02-27 00:07:00,3.0,1.87579,0.00030,397.640,0.030,0.0023,0.0019,140.000,45.000,30938.55529,1.87582,397.651,33.172,45.068,45.000,0.00,0.09,-272.71,-272.75,-0,509,-1,19.6,2.4,-29.3,19.7,2.4,-28.9,5.73,1.99,-21.9,26.3
2015-02-27 00:08:00,3.0,1.87591,0.00034,397.615,0.027,0.0012,0.0016,140.000,45.000,30923.19218,1.87596,397.620,33.165,45.068,45.000,0.00,0.09,-272.71,-272.76,-0,509,-1,19.6,2.4,-29.3,19.7,2.5,-28.8,5.73,1.97,-21.9,26.3
2015-02-27 00:09:00,3.0,1.87596,0.00026,397.641,0.026,0.0007,0.0014,139.999,45.000,30910.09195,1.87597,397.646,33.125,45.068,45.000,0.00,0.09,-272.71,-272.76,-0,510,-1,19.6,2.4,-29.3,19.7,2.5,-28.8,5.73,1.98,-21.9,26.3
2015-02-27 00:10:00,3.0,1.87590,0.00026,397.634,0.039,0.0007,0.0020,140.001,45.000,30901.37559,1.87590,397.637,33.123,45.068,45.000,0.00,0.09,-272.70,-272.75,-0,510,-1,19.7,2.4,-29.2,19.8,2.5,-28.8,5.73,1.98,-21.9,26.4
2015-02-27 00:11:00,3.0,1.87566,0.00032,397.639,0.034,0.0001,0.0020,139.998,45.000,30893.05349,1.87568,397.638,33.109,45.068,45.000,0.00,0.09,-272.70,-272.76,-1,510,-1,19.7,2.4,-29.3,19.8,2.5,-28.8,5.73,1.97,-21.9,26.4
2015-02-27 00:12:00,3.0,1.87575,0.00021,397.638,0.031,0.0009,0.0018,139.997,45.000,30884.99525,1.87573,397.642,33.117,45.068,45.000,0.00,0.09,-272.70,-272.76,-1,510,-1,19.7,2.4,-29.2,19.8,2.5,-28.8,5.73,1.97,-21.9,26.4
2015-02-27 00:13:00,3.0,1.87598,0.00024,397.642,0.037,0.0008,0.0016,140.000,45.000,30878.77760,1.87599,397.647,33.120,45.068,45.000,0.00,0.09,-272.70,-272.76,-1,511,-1,19.8,2.4,-29.2,19.9,2.5,-28.7,5.73,1.96,-21.9,26.4
2015-02-27 00:14:00,3.0,1.87597,0.00045,397.672,0.033,0.0006,0.0015,139.998,45.000,30874.36593,1.87600,397.673,33.100,45.068,45.000,0.00,0.09,-272.70,-272.76,-1,511,-1,19.8,2.4,-29.2,19.9,2.4,-28.8,5.73,1.97,-21.9,26.4
2015-02-27 00:15:00,3.0,1.87599,0.00032,397.627,0.041,-0.0004,0.0019,139.998,45.000,30871.74090,1.87599,397.627,33.084,45.068,45.000,0.00,0.09,-272.70,-272.76,-1,511,-1,19.8,2.4,-29.2,19.9,2.5,-28.7,5.73,1.97,-21.9,26.4
2015-02-27 00:16:00,3.0,1.87577,0.00037,397.634,0.031,0.0001,0.0015,139.999,45.000,30870.73062,1.87579,397.635,33.062,45.068,45.000,0.00,0.09,-272.70,-272.76,-1,511,-1,19.8,2.4,-29.2,19.9,2.5,-28.7,5.73,1.96,-21.9,26.4
2015-02-27 00:17:00,3.0,1.87592,0.00027,397.643,0.022,-0.0003,0.0027,140.001,45.000,30866.99615,1.87593,397.640,33.062,45.068,45.000,0.00,0.09,-272.69,-272.76,-1,512,-1,19.9,2.4,-29.1,19.9,2.4,-28.7,5.73,1.96,-21.9,26.4
2015-02-27 00:18:00,3.0,1.87598,0.00028,397.638,0.030,0.0001,0.0020,140.001,45.000,30866.61468,1.87596,397.640,33.060,45.068,45.000,0.00,0.09,-272.70,-272.76,-1,512,-1,19.8,2.3,-29.2,20.0,2.4,-28.7,5.73,1.97,-21.9,26.5
2015-02-27 00:19:00,3.0,1.87594,0.00040,397.640,0.032,0.0003,0.0018,139.998,45.000,30866.52855,1.87594,397.641,33.052,45.068,45.000,0.00,0.09,-272.70,-272.76,-0,512,-1,19.9,2.3,-29.2,20.0,2.4,-28.8,5.73,1.96,-21.9,26.5
2015-02-27 00:20:00,0.0,1.94691,0.02427,405.455,2.702,0.0560,0.0199,140.206,45.000,33646.30252,1.94462,405.531,33.048,45.068,45.000,0.00,0.09,-272.70,-272.76,-0,968,-1,19.9,2.3,-29.2,20.0,2.4,-28.8,5.73,1.95,-21.9,26.5
2015-02-27 00:21:00,0.0,1.95589,0.00042,406.566,0.020,0.0660,0.0023,140.001,45.000,33846.57764,1.95719,406.889,33.060,45.068,45.000,0.00,0.09,-272.71,-272.75,-1,969,-1,19.9,2.3,-29.2,20.0,2.4,-28.8,5.73,2.00,-21.9,26.5
2015-02-27 00:22:00,0.0,1.95591,0.00033,406.596,0.035,0.0671,0.0014,140.002,45.000,33902.31426,1.95717,406.922,33.047,45.068,45.000,0.00,0.09,-272.71,-272.76,-1,969,-1,20.0,2.3,-29.2,20.0,2.4,-28.8,5.73,2.01,-21.9,26.5
2015-02-27 00:23:00,0.0,1.95581,0.00030,406.594,0.029,0.0670,0.0021,140.003,45.000,33944.72031,1.95712,406.922,33.012,45.068,45.000,0.00,0.09,-272.70,-272.75,-1,970,-1,20.0,2.3,-29.2,20.1,2.4,-28.8,5.73,2.00,-21.9,26.5
2015-02-27 00:24:00,0.0,1.95574,0.00038,406.575,0.031,0.0671,0.0014,140.003,45.000,33982.29516,1.95702,406.904,33.000,45.068,45.000,0.00,0.09,-272.70,-272.75,-1,970,-1,20.0,2.3,-29.2,20.1,2.4,-28.8,5.73,2.00,-21.9,26.5
2015-02-27 00:25:00,0.0,1.95571,0.00030,406.592,0.031,0.0682,0.0013,139.999,45.000,34008.85429,1.95704,406.924,33.001,45.068,45.000,0.00,0.09,-272.70,-272.76,-1,970,-1,20.0,2.3,-29.2,20.1,2.4,-28.8,5.73,2.01,-21.9,26.5
2015-02-27 00:26:00,0.0,1.95592,0.00033,406.586,0.027,0.0678,0.0015,140.001,45.000,34032.61609,1.95723,406.919,33.017,45.068,45.000,0.00,0.09,-272.70,-272.76,-1,970,-1,20.0,2.3,-29.2,20.1,2.4,-28.8,5.73,2.00,-21.9,26.5
2015-02-27 00:27:00,0.0,1.95579,0.00029,406.616,0.037,0.0671,0.0021,139.997,45.000,34053.41914,1.95709,406.942,33.034,45.068,45.000,0.00,0.09,-272.70,-272.75,-1,970,-1,20.0,2.3,-29.2,20.1,2.4,-28.8,5.73,2.00,-21.9,26.5
2015-02-27 00:28:00,0.0,1.95582,0.00030,406.620,0.031,0.0676,0.0018,140.000,45.000,34070.50377,1.95711,406.952,33.038,45.068,45.000,0.00,0.09,-272.70,-272.76,-1,970,-1,20.0,2.3,-29.2,20.1,2.4,-28.8,5.73,2.00,-21.9,26.5
2015-02-27 00:29:00,0.0,1.95588,0.00043,406.603,0.029,0.0675,0.0025,139.998,45.000,34086.28934,1.95719,406.933,33.060,45.068,45.000,0.00,0.09,-272.70,-272.76,-1,970,-1,20.0,2.3,-29.2,20.1,2.4,-28.8,5.73,2.00,-21.9,26.5
2015-02-27 00:30:00,0.0,1.95580,0.00025,406.605,0.021,0.0671,0.0016,140.001,45.000,34099.87661,1.95710,406.934,33.087,45.067,45.000,0.00,0.09,-272.70,-272.76,-1,971,-1,20.0,2.3,-29.2,20.1,2.4,-28.8,5.73,2.00,-21.9,26.5
2015-02-27 00:31:00,0.0,1.95570,0.00030,406.597,0.025,0.0674,0.0019,140.000,45.000,34113.16532,1.95700,406.926,33.109,45.067,44.999,0.00,0.09,-272.70,-272.76,-1,970,-1,20.0,2.3,-29.2,20.1,2.4,-28.8,5.73,2.00,-21.9,26.5
2015-02-27 00:32:00,0.0,1.95555,0.00030,406.594,0.023,0.0672,0.0018,139.998,45.000,34120.03473,1.95683,406.923,33.121,45.067,44.999,0.00,0.09,-272.70,-272.76,-1,970,-1,20.0,2.3,-29.2,20.1,2.4,-28.8,5.73,2.00,-21.9,26.5
2015-02-27 00:33:00,0.0,1.95549,0.00030,406.587,0.040,0.0676,0.0016,139.998,45.000,34128.55375,1.95680,406.916,33.118,45.067,44.999,0.00,0.09,-272.70,-272.76,-1,970,-1,19.9,2.3,-29.2,20.1,2.4,-28.8,5.73,2.00,-21.9,26.5
2015-02-27 00:34:00,0.0,1.95570,0.00035,406.593,0.037,0.0675,0.0014,140.001,45.000,34135.08130,1.95699,406.924,33.098,45.067,45.000,0.00,0.09,-272.69,-272.75,-1,971,-1,19.9,2.3,-29.2,20.1,2.4,-28.8,5.73,2.00,-21.9,26.5
2015-02-27 00:35:00,0.0,1.95587,0.00034,406.598,0.033,0.0668,0.0019,140.002,45.000,34141.80673,1.95719,406.924,33.069,45.067,45.000,0.00,0.09,-272.71,-272.76,-1,971,-1,19.9,2.3,-29.2,20.1,2.4,-28.8,5.73,2.00,-21.9,26.5
2015-02-27 00:36:00,0.0,1.95572,0.00042,406.600,0.028,0.0680,0.0018,139.999,45.000,34145.29145,1.95703,406.933,33.063,45.068,45.000,0.00,0.09,-272.71,-272.76,-1,971,-1,19.9,2.3,-29.2,20.1,2.4,-28.8,5.73,2.00,-21.9,26.5
2015-02-27 00:37:00,0.0,1.95577,0.00037,406.613,0.028,0.0680,0.0019,140.000,45.000,34147.96719,1.95708,406.946,33.063,45.068,45.000,0.00,0.09,-272.70,-272.75,-1,971,-1,19.9,2.3,-29.2,20.1,2.4,-28.7,5.73,2.00,-21.9,26.5
2015-02-27 00:38:00,0.0,1.95583,0.00035,406.601,0.029,0.0673,0.0016,139.999,45.000,34151.02883,1.95711,406.930,33.060,45.068,45.000,0.00,0.09,-272.70,-272.76,-1,971,-1,19.9,2.3,-29.2,20.1,2.4,-28.8,5.73,2.00,-21.9,26.5
2015-02-27 00:39:00,0.0,1.95591,0.00028,406.625,0.041,0.0672,0.0012,139.999,45.000,34155.99548,1.95722,406.954,33.032,45.068,45.000,0.00,0.09,-272.70,-272.76,-1,971,-1,19.9,2.3,-29.3,20.1,2.4,-28.8,5.73,2.00,-21.9,26.5
2015-02-27 00:40:00,0.0,1.95576,0.00041,406.607,0.027,0.0676,0.0017,139.997,45.000,34158.01733,1.95706,406.937,33.007,45.068,45.000,0.00,0.09,-272.70,-272.76,-1,971,-1,19.9,2.3,-29.2,20.1,2.4,-28.8,5.73,2.00,-21.9,26.4
2015-02-27 00:41:00,0.0,1.95599,0.00036,406.619,0.026,0.0672,0.0012,139.998,45.000,34160.33959,1.95729,406.948,33.002,45.068,45.001,0.00,0.09,-272.69,-272.75,-1,971,-1,19.9,2.3,-29.3,20.0,2.4,-28.9,5.73,2.00,-21.9,26.5
2015-02-27 00:42:00,0.0,1.95582,0.00025,406.609,0.032,0.0669,0.0019,140.001,45.000,34163.77813,1.95710,406.936,33.028,45.068,45.000,0.00,0.09,-272.71,-272.76,-1,971,-1,19.8,2.3,-29.3,20.1,2.4,-28.8,5.73,2.00,-21.9,26.5
2015-02-27 00:43:00,0.0,1.95559,0.00036,406.613,0.021,0.0684,0.0015,140.000,45.000,34166.83881,1.95691,406.947,33.039,45.068,45.000,0.00,0.09,-272.70,-272.76,-1,971,-1,19.8,2.3,-29.2,20.0,2.4,-28.8,5.73,2.00,-21.9,26.5
2015-02-27 00:44:00,0.0,1.95594,0.00029,406.626,0.028,0.0678,0.0011,139.996,45.000,34164.23495,1.95726,406.959,33.052,45.068,45.000,0.00,0.09,-272.70,-272.75,-1,971,-1,19.9,2.3,-29.3,20.0,2.4,-28.8,5.73,2.00,-21.9,26.4
2015-02-27 00:45:00,0.0,1.95578,0.00022,406.613,0.035,0.0675,0.0008,140.001,45.000,34168.27728,1.95706,406.944,33.058,45.068,45.000,0.00,0.09,-272.70,-272.76,-1,971,-1,19.9,2.3,-29.3,20.0,2.4,-28.8,5.73,2.00,-21.9,26.5
2015-02-27 00:46:00,0.0,1.95565,0.00033,406.632,0.026,0.0675,0.0018,139.998,45.000,34167.69990,1.95698,406.962,33.063,45.068,45.000,0.00,0.09,-272.70,-272.76,-1,971,-1,19.8,2.3,-29.3,20.0,2.4,-28.8,5.73,2.00,-21.9,26.4
2015-02-27 00:47:00,0.0,1.95568,0.00032,406.616,0.028,0.0676,0.0015,139.999,45.000,34169.60122,1.95698,406.947,33.064,45.068,45.000,0.00,0.09,-272.70,-272.75,-1,971,-1,19.8,2.3,-29.3,20.0,2.4,-28.8,5.73,2.00,-21.9,26.4
2015-02-27 00:48:00,0.0,1.95561,0.00041,406.575,0.025,0.0677,0.0012,140.000,45.000,34169.51741,1.95693,406.906,33.077,45.068,45.000,0.00,0.09,-272.70,-272.76,-1,971,-1,19.8,2.3,-29.3,20.0,2.4,-28.8,5.73,2.00,-21.9,26.4
2015-02-27 00:49:00,0.0,1.95543,0.00030,406.595,0.035,0.0669,0.0018,139.996,45.000,34168.68193,1.95670,406.922,33.110,45.067,45.000,0.00,0.09,-272.71,-272.76,-1,971,-1,19.8,2.3,-29.3,20.0,2.4,-28.8,5.73,2.00,-21.9,26.4
2015-02-27 00:50:00,0.0,1.95552,0.00037,406.600,0.034,0.0676,0.0013,139.998,45.000,34169.54059,1.95683,406.931,33.103,45.067,45.000,0.00,0.09,-272.70,-272.76,-1,971,-1,19.8,2.3,-29.3,20.0,2.4,-28.8,5.73,2.00,-21.9,26.4
2015-02-27 00:51:00,0.0,1.95593,0.00030,406.624,0.042,0.0680,0.0014,140.003,45.000,34168.44464,1.95724,406.956,33.069,45.067,45.000,0.00,0.09,-272.70,-272.75,-1,971,-1,19.8,2.3,-29.3,19.9,2.4,-28.8,5.73,2.00,-21.9,26.4
2015-02-27 00:52:00,0.0,1.95599,0.00026,406.619,0.023,0.0680,0.0012,140.000,45.000,34165.95055,1.95728,406.952,33.067,45.068,45.000,0.00,0.09,-272.70,-272.76,-1,971,-1,19.7,2.3,-29.3,20.0,2.4,-28.8,5.73,2.00,-21.9,26.4
2015-02-27 00:53:00,0.0,1.95610,0.00040,406.630,0.030,0.0671,0.0016,140.002,45.000,34164.12778,1.95738,406.956,33.064,45.068,45.000,0.00,0.09,-272.70,-272.76,-1,970,-1,19.7,2.3,-29.3,20.0,2.4,-28.8,5.73,2.00,-21.9,26.4
2015-02-27 00:54:00,0.0,1.95600,0.00034,406.633,0.032,0.0678,0.0014,140.000,45.000,34164.36341,1.95729,406.966,33.062,45.068,45.000,0.00,0.09,-272.70,-272.75,-1,971,-1,19.7,2.3,-29.3,19.9,2.4,-28.8,5.73,2.00,-21.9,26.4
2015-02-27 00:55:00,0.0,1.95608,0.00039,406.632,0.042,0.0679,0.0020,140.002,45.000,34165.21411,1.95739,406.963,33.063,45.068,45.000,0.00,0.09,-272.70,-272.76,-1,971,-1,19.7,2.3,-29.4,19.9,2.4,-28.8,5.73,2.00,-21.9,26.4
2015-02-27 00:56:00,0.0,1.95585,0.00028,406.635,0.035,0.0675,0.0018,140.000,45.000,34164.61385,1.95718,406.966,33.062,45.068,45.000,0.00,0.09,-272.71,-272.76,-1,970,-1,19.7,2.3,-29.3,19.9,2.4,-28.8,5.73,2.00,-21.9,26.4
2015-02-27 00:57:00,0.0,1.95564,0.00027,406.611,0.033,0.0674,0.0013,140.000,45.000,34164.75195,1.95695,406.940,33.051,45.068,45.000,0.00,0.09,-272.70,-272.76,-1,970,-1,19.7,2.3,-29.3,19.9,2.4,-28.8,5.73,2.00,-21.9,26.4
2015-02-27 00:58:00,0.0,1.95559,0.00027,406.598,0.027,0.0674,0.0011,139.996,45.000,34164.11239,1.95685,406.928,33.035,45.068,45.000,0.00,0.09,-272.70,-272.76,-1,971,-1,19.7,2.4,-29.3,19.9,2.4,-28.9,5.73,2.00,-21.9,26.4
2015-02-27 00:59:00,0.0,1.95513,0.00034,406.585,0.030,0.0672,0.0017,140.002,45.000,34168.24519,1.95649,406.913,33.057,45.068,45.000,0.00,0.09,-272.70,-272.76,-1,971,-1,19.7,2.4,-29.3,19.9,2.4,-28.9,5.73,2.00,-21.9,26.4
2015-02-27 01:00:00,0.0,1.95500,0.00042,406.574,0.039,0.0679,0.0013,139.999,45.000,34167.31358,1.95631,406.907,33.022,45.068,45.000,0.00,0.09,-272.70,-272.76,-1,970,-1,19.7,2.4,-29.2,19.9,2.4,-28.9,5.73,2.00,-21.9,26.4
2015-02-27 01:01:00,0.0,1.95515,0.00031,406.567,0.036,0.0679,0.0018,140.000,45.000,34167.58651,1.95645,406.899,32.999,45.068,45.000,0.00,0.09,-272.70,-272.75,-1,970,-1,19.7,2.4,-29.2,19.9,2.4,-28.8,5.73,2.00,-21.9,26.4
2015-02-27 01:02:00,0.0,1.95550,0.00039,406.578,0.046,0.0680,0.0013,139.997,45.000,34161.98013,1.95676,406.911,32.998,45.068,45.000,0.00,0.09,-272.71,-272.76,-1,971,-1,19.7,2.4,-29.3,19.9,2.4,-28.9,5.73,2.00,-21.9,26.4
2015-02-27 01:03:00,0.0,1.95541,0.00035,406.586,0.035,0.0683,0.0017,140.000,45.000,34163.20906,1.95677,406.922,32.998,45.068,45.000,0.00,0.09,-272.70,-272.76,-1,971,-1,19.7,2.4,-29.1,19.9,2.4,-28.8,5.73,2.00,-21.9,26.4
2015-02-27 01:04:00,0.0,1.95543,0.00047,406.576,0.034,0.0672,0.0015,139.998,45.000,34165.48086,1.95671,406.901,33.001,45.068,45.000,0.00,0.09,-272.70,-272.75,-1,971,-1,19.6,2.4,-29.2,19.9,2.4,-28.8,5.73,2.00,-21.9,26.4
2015-02-27 01:05:00,0.0,1.95505,0.00042,406.583,0.039,0.0677,0.0018,139.999,45.000,34163.81750,1.95637,406.915,33.000,45.068,45.000,0.00,0.09,-272.70,-272.76,-1,971,-1,19.6,2.4,-29.2,19.9,2.4,-28.8,5.73,2.00,-21.9,26.4
2015-02-27 01:06:00,0.0,1.95489,0.00035,406.543,0.037,0.0687,0.0014,140.000,45.000,34167.77001,1.95619,406.880,33.006,45.068,45.000,0.00,0.09,-272.70,-272.76,-1,971,-1,19.6,2.4,-29.2,19.9,2.4,-28.8,5.73,2.00,-21.9,26.4
2015-02-27 01:07:00,0.0,1.95512,0.00037,406.512,0.031,0.0683,0.0016,139.998,45.000,34165.90011,1.95645,406.846,33.019,45.068,45.000,0.00,0.09,-272.70,-272.75,-1,971,-1,19.6,2.4,-29.2,19.9,2.4,-28.8,5.73,2.00,-21.9,26.3
2015-02-27 01:08:00,0.0,1.95522,0.00036,406.550,0.028,0.0680,0.0021,140.000,45.000,34167.40205,1.95654,406.882,33.026,45.068,45.000,0.00,0.09,-272.70,-272.76,-1,970,-1,19.6,2.4,-29.2,19.9,2.4,-28.8,5.73,2.00,-21.9,26.3
2015-02-27 01:09:00,0.0,1.95516,0.00038,406.563,0.030,0.0684,0.0013,140.001,45.000,34167.72235,1.95648,406.898,33.008,45.068,45.000,0.00,0.09,-272.71,-272.76,-1,971,-1,19.6,2.4,-29.2,19.9,2.4,-28.8,5.73,2.00,-21.9,26.3
2015-02-27 01:10:00,0.0,1.95508,0.00038,406.525,0.024,0.0696,0.0016,140.002,45.000,34166.62257,1.95640,406.865,33.001,45.068,45.000,0.00,0.09,-272.70,-272.76,-1,971,-1,19.6,2.4,-29.1,19.9,2.5,-28.7,5.73,2.00,-21.9,26.3
2015-02-27 01:11:00,0.0,1.95495,0.00031,406.530,0.036,0.0689,0.0016,139.998,45.000,34164.46216,1.95627,406.867,33.004,45.068,45.000,0.00,0.09,-272.70,-272.76,-1,970,-1,19.6,2.4,-29.1,19.9,2.5,-28.7,5.73,2.00,-21.9,26.3
2015-02-27 01:12:00,0.0,1.95516,0.00044,406.531,0.023,0.0695,0.0018,139.999,45.000,34163.55609,1.95649,406.870,33.001,45.068,45.000,0.00,0.09,-272.70,-272.76,-1,970,-1,19.6,2.4,-29.1,19.9,2.5,-28.7,5.73,2.00,-21.9,26.3
2015-02-27 01:13:00,0.0,1.95533,0.00031,406.583,0.033,0.0693,0.0021,140.000,45.000,34163.41927,1.95668,406.922,33.004,45.068,45.000,0.00,0.09,-272.70,-272.76,-1,970,-1,19.6,2.4,-29.1,19.9,2.5,-28.7,5.73,2.00,-21.9,26.3
2015-02-27 01:14:00,0.0,1.95501,0.00024,406.569,0.037,0.0693,0.0016,139.996,45.000,34161.04257,1.95633,406.908,33.009,45.068,45.000,0.00,0.09,-272.70,-272.75,-1,970,-1,19.6,2.4,-29.1,19.9,2.5,-28.6,5.73,2.00,-21.9,26.3
2015-02-27 01:15:00,0.0,1.95526,0.00028,406.557,0.031,0.0694,0.0015,139.998,45.000,34161.37057,1.95661,406.896,33.033,45.068,45.000,0.00,0.09,-272.71,-272.76,-1,970,-1,19.6,2.4,-29.1,19.9,2.5,-28.7,5.73,2.00,-21.9,26.3
2015-02-27 01:16:00,0.0,1.95493,0.00028,406.546,0.030,0.0699,0.0012,139.998,45.000,34162.82404,1.95628,406.887,33.004,45.068,45.000,0.00,0.09,-272.71,-272.76,-1,970,-1,19.6,2.4,-29.1,19.9,2.5,-28.6,5.73,2.00,-21.9,26.3
2015-02-27 01:17:00,0.0,1.95534,0.00039,406.570,0.035,0.0693,0.0017,140.003,45.000,34162.09939,1.95667,406.908,33.003,45.068,45.000,0.00,0.09,-272.70,-272.76,-1,970,-1,19.6,2.4,-29.1,19.9,2.5,-28.6,5.73,2.00,-21.9,26.3
2015-02-27 01:18:00,0.0,1.95498,0.00034,406.531,0.045,0.0684,0.0018,140.000,45.000,34163.54736,1.95630,406.864,33.027,45.068,45.000,0.00,0.09,-272.70,-272.76,-1,970,-1,19.6,2.4,-29.1,19.8,2.5,-28.7,5.73,2.00,-21.9,26.3
2015-02-27 01:19:00,0.0,1.95516,0.00040,406.558,0.041,0.0691,0.0020,140.000,45.000,34161.04134,1.95648,406.896,33.046,45.068,45.000,0.00,0.09,-272.71,-272.76,-1,970,-1,19.6,2.4,-29.1,19.8,2.5,-28.7,5.73,2.00,-21.9,26.2
2015-02-27 01:20:00,0.0,1.95501,0.00030,406.566,0.034,0.0693,0.0016,139.997,45.000,34160.23406,1.95635,406.906,33.047,45.068,45.000,0.00,0.09,-272.70,-272.75,-1,970,-1,19.6,2.4,-29.1,19.8,2.5,-28.6,5.73,2.00,-21.9,26.3
2015-02-27 01:21:00,0.0,1.95517,0.00033,406.546,0.025,0.0696,0.0015,139.997,45.000,34161.08266,1.95650,406.886,33.059,45.067,44.999,0.00,0.09,-272.70,-272.75,-1,970,-1,19.6,2.4,-29.1,19.8,2.5,-28.7,5.73,2.00,-21.9,26.3
2015-02-27 01:22:00,0.0,1.95515,0.00046,406.540,0.020,0.0691,0.0016,140.001,45.000,34162.48087,1.95651,406.878,33.057,45.067,45.000,0.00,0.09,-272.70,-272.76,-1,970,-1,19.6,2.4,-29.1,19.8,2.5,-28.7,5.73,2.00,-21.9,26.3
2015-02-27 01:23:00,0.0,1.95499,0.00039,406.549,0.027,0.0695,0.0014,139.998,45.000,34162.28618,1.95629,406.887,33.062,45.067,45.000,0.00,0.09,-272.70,-272.76,-1,970,-1,19.6,2.4,-29.1,19.8,2.5,-28.7,5.73,2.00,-21.9,26.3
2015-02-27 01:24:00,0.0,1.95518,0.00027,406.551,0.036,0.0695,0.0016,139.999,45.000,34162.79851,1.95651,406.891,33.044,45.067,45.000,0.00,0.09,-272.70,-272.76,-1,970,-1,19.6,2.4,-29.0,19.8,2.5,-28.7,5.73,2.00,-21.9,26.3
2015-02-27 01:25:00,0.0,1.95533,0.00039,406.524,0.039,0.0692,0.0015,140.000,45.000,34161.96963,1.95669,406.866,33.024,45.068,45.000,0.00,0.09,-272.70,-272.76,-1,970,-1,19.5,2.4,-29.1,19.8,2.5,-28.7,5.73,2.00,-21.9,26.2
2015-02-27 01:26:00,0.0,1.95530,0.00030,406.552,0.031,0.0698,0.0016,139.998,45.000,34163.05653,1.95665,406.892,33.014,45.068,45.000,0.00,0.09,-272.70,-272.76,-1,970,-1,19.5,2.4,-29.1,19.8,2.5,-28.7,5.73,2.00,-22.0,26.3
2015-02-27 01:27:00,0.0,1.95526,0.00041,406.563,0.035,0.0692,0.0014,139.997,45.000,34161.56028,1.95657,406.901,33.037,45.068,45.000,0.00,0.09,-272.70,-272.75,-1,970,-1,19.5,2.4,-29.1,19.8,2.5,-28.7,5.73,2.00,-21.9,26.3
2015-02-27 01:28:00,0.0,1.95547,0.00039,406.582,0.025,0.0688,0.0015,140.000,45.000,34161.05344,1.95683,406.918,33.032,45.068,45.000,0.00,0.09,-272.70,-272.75,-1,970,-1,19.5,2.4,-29.1,19.8,2.5,-28.7,5.73,2.00,-22.0,26.3
2015-02-27 01:29:00,0.0,1.95524,0.00030,406.556,0.035,0.0705,0.0021,140.001,45.000,34161.68091,1.95658,406.902,33.053,45.068,45.000,0.00,0.09,-272.71,-272.76,-1,970,-1,19.5,2.4,-29.1,19.8,2.5,-28.7,5.73,2.00,-22.0,26.3
2015-02-27 01:30:00,0.0,1.95528,0.00039,406.557,0.032,0.0689,0.0014,140.001,45.000,34162.60979,1.95660,406.893,33.063,45.068,45.000,0.00,0.09,-272.70,-272.76,-1,971,-1,19.6,2.4,-29.1,19.8,2.5,-28.7,5.73,2.00,-22.0,26.3
2015-02-27 01:31:00,0.0,1.95525,0.00040,406.575,0.027,0.0690,0.0020,139.999,45.000,34161.34565,1.95659,406.913,33.081,45.068,45.000,0.00,0.09,-272.70,-272.75,-1,970,-1,19.5,2.4,-29.1,19.8,2.5,-28.6,5.73,2.00,-22.0,26.3
2015-02-27 01:32:00,0.0,1.95516,0.00040,406.563,0.030,0.0702,0.0010,139.998,45.000,34160.78256,1.95652,406.905,33.085,45.067,45.000,0.00,0.09,-272.70,-272.76,-1,970,-1,19.5,2.4,-29.0,19.8,2.5,-28.6,5.73,2.00,-21.9,26.3
2015-02-27 01:33:00,0.0,1.95486,0.00035,406.544,0.042,0.0697,0.0021,139.999,45.000,34161.89201,1.95619,406.887,33.064,45.068,45.000,0.00,0.09,-272.71,-272.76,-1,970,-1,19.5,2.4,-29.0,19.7,2.5,-28.6,5.73,2.00,-22.0,26.3
2015-02-27 01:34:00,0.0,1.95503,0.00035,406.543,0.026,0.0699,0.0016,140.004,45.000,34162.81781,1.95637,406.883,33.063,45.068,45.000,0.00,0.09,-272.70,-272.75,-1,971,-1,19.5,2.5,-29.0,19.7,2.5,-28.6,5.73,2.01,-21.9,26.3
2015-02-27 01:35:00,0.0,1.95499,0.00046,406.542,0.046,0.0693,0.0018,139.999,45.000,34160.44386,1.95633,406.883,33.063,45.068,45.000,0.00,0.09,-272.69,-272.75,-1,970,-1,19.5,2.4,-29.0,19.7,2.5,-28.6,5.73,2.00,-22.0,26.3
2015-02-27 01:36:00,0.0,1.95493,0.00034,406.533,0.033,0.0708,0.0017,140.004,45.000,34161.94547,1.95631,406.877,33.044,45.068,45.000,0.00,0.09,-272.71,-272.77,-1,970,-1,19.5,2.5,-28.9,19.7,2.5,-28.5,5.73,2.00,-22.0,26.3
2015-02-27 01:37:00,0.0,1.95484,0.00034,406.544,0.022,0.0702,0.0017,140.000,45.000,34162.63518,1.95616,406.888,33.002,45.068,45.000,0.00,0.09,-272.70,-272.76,-1,970,-1,19.5,2.4,-29.0,19.7,2.5,-28.5,5.73,2.00,-22.0,26.2
2015-02-27 01:38:00,0.0,1.95483,0.00034,406.531,0.028,0.0699,0.0018,139.998,45.000,34159.80658,1.95618,406.872,32.999,45.068,45.000,0.00,0.09,-272.69,-272.76,-1,970,-1,19.5,2.4,-29.0,19.7,2.5,-28.5,5.73,2.00,-22.0,26.2
2015-02-27 01:39:00,0.0,1.95476,0.00024,406.545,0.031,0.0701,0.0015,140.000,45.000,34161.14496,1.95612,406.887,32.999,45.068,45.000,0.00,0.09,-272.70,-272.76,-1,970,-1,19.5,2.5,-29.0,19.7,2.5,-28.5,5.73,2.00,-22.0,26.2
2015-02-27 01:40:00,0.0,1.95477,0.00032,406.539,0.028,0.0703,0.0016,140.000,45.000,34160.52208,1.95611,406.882,32.998,45.068,45.000,0.00,0.09,-272.71,-272.76,-1,970,-1,19.5,2.5,-28.9,19.7,2.5,-28.5,5.73,2.00,-22.0,26.3
2015-02-27 01:41:00,0.0,1.95480,0.00037,406.529,0.024,0.0699,0.0017,139.997,45.000,34161.47460,1.95614,406.871,33.000,45.068,45.000,0.00,0.09,-272.70,-272.75,-1,970,-1,19.5,2.5,-28.9,19.7,2.5,-28.5,5.73,2.00,-22.0,26.2
2015-02-27 01:42:00,0.0,1.95486,0.00041,406.526,0.028,0.0700,0.0018,140.002,45.000,34162.82617,1.95623,406.869,33.001,45.068,45.000,0.00,0.09,-272.71,-272.76,-1,970,-1,19.5,2.5,-28.9,19.7,2.5,-28.5,5.73,2.00,-22.0,26.2
2015-02-27 01:43:00,0.0,1.95472,0.00026,406.508,0.036,0.0705,0.0011,140.003,45.000,34163.23825,1.95608,406.854,33.000,45.068,45.000,0.00,0.09,-272.71,-272.76,-1,970,-1,19.5,2.5,-28.9,19.7,2.5,-28.5,5.73,2.00,-22.0,26.2
2015-02-27 01:44:00,0.0,1.95477,0.00042,406.519,0.055,0.0699,0.0014,140.000,45.000,34161.31938,1.95611,406.859,33.003,45.068,45.000,0.00,0.09,-272.70,-272.76,-1,970,-1,19.5,2.5,-28.9,19.7,2.5,-28.5,5.73,2.00,-22.0,26.2
2015-02-27 01:45:00,0.0,1.95509,0.00035,406.523,0.027,0.0705,0.0022,139.997,45.000,34159.39181,1.95641,406.868,33.009,45.068,45.000,0.00,0.09,-272.70,-272.75,-1,970,-1,19.5,2.5,-28.9,19.7,2.5,-28.5,5.73,2.00,-22.0,26.2
2015-02-27 01:46:00,0.0,1.95520,0.00035,406.538,0.024,0.0701,0.0018,140.002,45.000,34161.06470,1.95657,406.880,33.007,45.068,45.000,0.00,0.09,-272.70,-272.76,-1,970,-1,19.5,2.5,-28.9,19.7,2.5,-28.5,5.73,2.00,-22.0,26.2